Time,TemperatureF,DewpointF,PressureIn,WindDirection,WindDirectionDegrees,WindSpeedMPH,WindSpeedGustMPH,Humidity,HourlyPrecipIn,Conditions,Clouds,dailyrainin,SoftwareType,DateUTC
2013-03-03 00:00:00,19.4,17.5,29.92,NNW,337,4.0,7.0,92,0.00,,,-99.99,WeatherLink 5.6,2013-03-03 05:00:00,
2013-03-03 00:30:00,19.3,17.4,29.93,NNW,337,2.0,7.0,92,0.00,,,-99.99,WeatherLink 5.6,2013-03-03 05:30:00,
2013-03-03 01:00:00,19.0,17.1,29.94,NNW,337,3.0,10.0,92,0.00,,,-99.99,WeatherLink 5.6,2013-03-03 06:00:00,
2013-03-03 01:30:00,18.5,16.6,29.94,NW,315,4.0,10.0,92,0.00,,,-99.99,WeatherLink 5.6,2013-03-03 06:30:00,
2013-03-03 02:00:00,18.2,16.3,29.94,NW,315,3.0,11.0,92,0.00,,,-99.99,WeatherLink 5.6,2013-03-03 07:00:00,
2013-03-03 02:30:00,18.2,16.3,29.94,NW,315,2.0,9.0,92,0.00,,,-99.99,WeatherLink 5.6,2013-03-03 07:30:00,
2013-03-03 03:00:00,18.2,16.3,29.93,NW,315,3.0,10.0,92,0.00,,,-99.99,WeatherLink 5.6,2013-03-03 08:00:00,
2013-03-03 03:30:00,18.2,16.3,29.93,NNW,337,3.0,6.0,92,0.00,,,-99.99,WeatherLink 5.6,2013-03-03 08:30:00,
2013-03-03 04:00:00,18.1,16.2,29.93,NW,315,3.0,10.0,92,0.00,,,-99.99,WeatherLink 5.6,2013-03-03 09:00:00,
2013-03-03 04:30:00,18.0,16.1,29.93,NW,315,5.0,12.0,92,0.00,,,-99.99,WeatherLink 5.6,2013-03-03 09:30:00,
2013-03-03 05:00:00,17.5,15.3,29.93,NW,315,5.0,12.0,91,0.00,,,-99.99,WeatherLink 5.6,2013-03-03 10:00:00,
2013-03-03 05:30:00,17.5,15.6,29.93,NW,315,3.0,10.0,92,0.00,,,-99.99,WeatherLink 5.6,2013-03-03 10:30:00,
2013-03-03 06:00:00,17.2,15.0,29.94,NW,315,4.0,11.0,91,0.00,,,-99.99,WeatherLink 5.6,2013-03-03 11:00:00,
2013-03-03 06:30:00,17.2,15.0,29.94,NW,315,5.0,13.0,91,0.00,,,-99.99,WeatherLink 5.6,2013-03-03 11:30:00,
2013-03-03 07:00:00,17.2,15.0,29.94,NW,315,4.0,12.0,91,0.00,,,-99.99,WeatherLink 5.6,2013-03-03 12:00:00,
2013-03-03 07:30:00,17.4,15.5,29.95,NW,315,5.0,11.0,92,0.00,,,-99.99,WeatherLink 5.6,2013-03-03 12:30:00,
2013-03-03 08:00:00,17.8,15.6,29.95,NW,315,4.0,10.0,91,0.00,,,-99.99,WeatherLink 5.6,2013-03-03 13:00:00,
2013-03-03 08:30:00,18.7,16.8,29.95,NW,315,4.0,11.0,92,0.00,,,-99.99,WeatherLink 5.6,2013-03-03 13:30:00,
2013-03-03 09:00:00,18.8,16.9,29.95,NW,315,4.0,10.0,92,0.00,,,-99.99,WeatherLink 5.6,2013-03-03 14:00:00,
2013-03-03 09:30:00,19.3,17.4,29.96,NW,315,4.0,12.0,92,0.00,,,-99.99,WeatherLink 5.6,2013-03-03 14:30:00,
2013-03-03 10:00:00,19.7,17.5,29.95,NW,315,5.0,12.0,91,0.00,,,-99.99,WeatherLink 5.6,2013-03-03 15:00:00,
2013-03-03 10:30:00,20.3,18.1,29.95,NW,315,4.0,10.0,91,0.00,,,-99.99,WeatherLink 5.6,2013-03-03 15:30:00,
2013-03-03 11:00:00,20.7,18.7,29.95,NW,315,4.0,11.0,92,0.00,,,-99.99,WeatherLink 5.6,2013-03-03 16:00:00,
2013-03-03 11:30:00,21.8,19.8,29.95,NW,315,3.0,12.0,92,0.00,,,-99.99,WeatherLink 5.6,2013-03-03 16:30:00,
2013-03-03 12:00:00,21.6,19.6,29.95,NW,315,4.0,14.0,92,0.00,,,-99.99,WeatherLink 5.6,2013-03-03 17:00:00,
2013-03-03 12:30:00,21.5,19.5,29.94,NW,315,7.0,19.0,92,0.00,,,-99.99,WeatherLink 5.6,2013-03-03 17:30:00,
2013-03-03 13:00:00,21.5,19.3,29.93,NW,315,8.0,19.0,91,0.00,,,-99.99,WeatherLink 5.6,2013-03-03 18:00:00,
2013-03-03 13:30:00,21.2,18.5,29.93,NW,315,7.0,17.0,89,0.00,,,-99.99,WeatherLink 5.6,2013-03-03 18:30:00,
2013-03-03 14:00:00,22.0,19.0,29.92,NW,315,7.0,17.0,88,0.00,,,-99.99,WeatherLink 5.6,2013-03-03 19:00:00,
2013-03-03 14:30:00,21.7,18.4,29.93,NW,315,7.0,18.0,87,0.00,,,-99.99,WeatherLink 5.6,2013-03-03 19:30:00,
2013-03-03 15:00:00,21.8,18.5,29.93,NW,315,8.0,18.0,87,0.00,,,-99.99,WeatherLink 5.6,2013-03-03 20:00:00,
2013-03-03 15:30:00,22.5,18.1,29.93,NW,315,7.0,14.0,83,0.00,,,-99.99,WeatherLink 5.6,2013-03-03 20:30:00,
2013-03-03 16:00:00,22.2,18.7,29.94,NW,315,7.0,21.0,86,0.00,,,-99.99,WeatherLink 5.6,2013-03-03 21:00:00,
2013-03-03 16:30:00,21.1,18.1,29.95,NW,315,5.0,15.0,88,0.00,,,-99.99,WeatherLink 5.6,2013-03-03 21:30:00,
2013-03-03 17:00:00,21.2,17.9,29.95,NW,315,8.0,17.0,87,0.00,,,-99.99,WeatherLink 5.6,2013-03-03 22:00:00,
2013-03-03 17:30:00,21.5,18.0,29.96,NW,315,5.0,17.0,86,0.00,,,-99.99,WeatherLink 5.6,2013-03-03 22:30:00,
2013-03-03 18:00:00,21.1,17.3,29.97,NW,315,2.0,10.0,85,0.00,,,-99.99,WeatherLink 5.6,2013-03-03 23:00:00,
2013-03-03 18:30:00,21.0,17.2,29.97,NW,315,5.0,11.0,85,0.00,,,-99.99,WeatherLink 5.6,2013-03-03 23:30:00,
2013-03-03 19:00:00,20.9,17.1,29.98,NW,315,4.0,11.0,85,0.00,,,-99.99,WeatherLink 5.6,2013-03-04 00:00:00,
2013-03-03 19:30:00,20.9,17.4,29.99,NW,315,5.0,11.0,86,0.00,,,-99.99,WeatherLink 5.6,2013-03-04 00:30:00,
2013-03-03 20:00:00,20.9,17.9,29.99,NW,315,6.0,16.0,88,0.00,,,-99.99,WeatherLink 5.6,2013-03-04 01:00:00,
2013-03-03 20:30:00,20.9,18.2,30.00,NW,315,5.0,15.0,89,0.00,,,-99.99,WeatherLink 5.6,2013-03-04 01:30:00,
2013-03-03 21:00:00,20.8,17.8,30.00,NW,315,7.0,18.0,88,0.00,,,-99.99,WeatherLink 5.6,2013-03-04 02:00:00,
2013-03-03 21:30:00,20.7,17.4,30.00,NW,315,8.0,14.0,87,0.00,,,-99.99,WeatherLink 5.6,2013-03-04 02:30:00,
2013-03-03 22:00:00,20.7,17.2,30.00,NW,315,8.0,16.0,86,0.00,,,-99.99,WeatherLink 5.6,2013-03-04 03:00:00,
2013-03-03 22:30:00,20.6,16.5,29.99,NW,315,6.0,13.0,84,0.00,,,-99.99,WeatherLink 5.6,2013-03-04 03:30:00,
2013-03-03 23:00:00,20.6,16.5,29.99,NW,315,2.0,10.0,84,0.00,,,-99.99,WeatherLink 5.6,2013-03-04 04:00:00,
2013-03-03 23:30:00,20.7,16.4,29.99,NW,315,4.0,11.0,83,0.00,,,-99.99,WeatherLink 5.6,2013-03-04 04:30:00,